星链-1047 (STARLINK-1047 )

导读 | 星芒AI

STARLINK-1047 是 SpaceX 星链计划中的一颗低轨通信卫星,属于第 10 批部署的星链卫星群。该卫星于 2021 年 10 月发射,运行在约 550 公里的近地轨道,旨在为全球提供高速互联网服务。它采用先进的相控阵天线和激光通信技术,支持高带宽、低延迟的通信连接。作为星链星座的一部分,STARLINK-1047 有助于扩大卫星互联网覆盖范围,特别是在偏远和网络基础设施薄弱的地区。

基本信息
目录编号:
44752
目录名称:
STARLINK-1047
国际标识:
2019-074AR
轨道中心:
EARTH
卫星名称:
星链-1047
卫星全名:
星链-1047 (STARLINK-1047 )
卫星状态:
在轨 (已飞行2224 天)
发射日期:
2019-11-11 UTC
国别 :
美国 (US)
星等 :
--
轨道信息
数据来源 国际轨道数据
星历时间: 2025-12-13T07:05:44+0800
10小时前
查看轨道信息
半长轴: 6852.689km
偏心率: 0.0001272
轨道倾角: 53.070°
近地点辐角 350.781°
升交点赤经 190.478°
平近点角 9.317°
近地点: 473.682km
远地点: 475.426km
周期: 94.092分钟
每日圈数: 15.304223
详细信息
固有亮度:
5
最大亮度:
2.5
卫星平台:
Starlink V1.0
覆盖范围:
全球
运营商:
太空探索技术公司
运营商所在国:
美国
制造商(研发单位):
太空探索技术公司
制造商所在国:
美国
使用方式:
暂无
卫星简介
星链(Starlink)计划是由太空探索技术公司(SpaceX)提出的一个巨型低轨卫星互联网星座项目,计划在2019年至2024年间在太空搭建由约1.2万颗卫星组成的“星链”网络,其中1584颗将部署在地球上空550千米处的近地轨道,并从2020年开始工作。该卫星仍在工作。
2D轨道图
3D轨道图
轨道高度分析图
轨道倾角分析图
轨道综合分析图
查看轨道综合分析图